www.pogodaiklimat.ru

Погода и климат >> Архив погоды >> Таиланд >> Аюттхая


ПОГОДА в Аюттхая

  • Прогноз погоды в Аюттхая
  • Монитор погоды в Аюттхая

АРХИВ ПОГОДЫ в Аюттхая

Время (UTC), дата Ветер
(напр.,м/с)
 
Видим.   Явления Облачность Т
(С)
Тd
(С)
f
(%)
Тe
(С)
Тes
(С)
Комфортность P
(гПа)
Po
(гПа)
Тmin
(С)
Tmax
(С)
R
(мм)
R24
(мм)
S
(см)
09 15.08 ЮЗ 6 8000 м мгла 8/4 600 м
[Cu med, cong Ac lent Cs]
+34.2 +24.7 58 +47 +49 опасность
перегрева
1004.0 1002.9
12 15.08 ЮЗ 6 8000 м мгла 6/1 600 м
[Sc Ac lent Cs]
+32.5 +24.7 64 +46 +46 опасность
перегрева
1003.2 1002.1 +34.6
15 15.08 ЮЗ 6 6000 м дымка 8/3 600 м
[Sc Ac lent Cs]
+30.7 +27.0 81 +48 +48 опасность
перегрева
1006.1 1005.0
18 15.08 Ю 6 6000 м дымка 8/1 600 м
[Sc Ac lent Cs]
+29.3 +26.5 85 +45 +45 опасность
перегрева
1006.0 1004.9
21 15.08 Ю 4 6000 м дымка 8/1 600 м
[Sc Ac lent Cs]
+28.0 +25.6 87 +41 +41 опасность
перегрева
1005.2 1004.1
00 16.08 Ю 4 7000 м дымка 9/3 600 м
[Sc Ac lent Cs]
+26.8 +24.2 86 +37 +38 очень
душно
1005.7 1004.6 +26.1
03 16.08 ЮЗ 6 8000 м дымка 9/1 600 м
[Sc Ac lent Cs]
+30.0 +24.1 71 +42 +45 опасность
перегрева
1007.5 1006.4
06 16.08 ЮЗ 8 8000 м мгла 8/3 600 м
[Cu hum Ac lent Cs]
+33.0 +25.1 63 +47 +48 опасность
перегрева
1005.9 1004.8
09 16.08 ЮЗ 6 8000 м мгла 8/3 600 м
[Cu med, cong Ac lent Cs]
+33.5 +24.4 59 +46 +47 опасность
перегрева
1003.7 1002.7
12 16.08 штиль 0 7000 м гроза, ливневой дождь 10/3 600 м
[Cb cap Ac As Cs]
+27.7 +25.9 90 +41 +41 опасность
перегрева
1004.3 1003.2 +34.4 4
15 16.08 ЮВ 4 7000 м дымка {гроза} 10/4 600 м
[Sc Ac As Cs]
+27.0 +25.3 90 +39 +39 очень
душно
1004.5 1003.4
18 16.08 Ю 5 7000 м дымка {гроза} 10/4 600 м
[Sc Ac As Cs]
+26.7 +25.1 91 +38 +38 очень
душно
1006.5 1005.3
21 16.08 ЮВ 3 7000 м дымка 10/4 600 м
[Sc Ac As Cs]
+26.2 +24.8 92 +37 +37 очень
душно
1006.3 1005.1 0.4
00 17.08 Ю 4 8000 м дымка 10/4 600 м
[Sc Ac As Cs]
+26.0 +24.8 93 +37 +37 очень
душно
1006.5 1005.3 +25.0 5
03 17.08 Ю 6 8000 м дымка 9/3
[Cu med, cong Ac As Cs]
+30.0 +24.6 73 +43 +45 опасность
перегрева
1008.5 1007.4
06 17.08 ЮЗ 9 9000 м мгла 8/4 600 м
[Cu med, cong Ac lent Cs]
+32.4 +24.7 64 +45 +46 опасность
перегрева
1006.9 1005.8
09 17.08 ЮВ 4 8000 м дымка 10/4 600 м
[Cu med, cong Ac As Cs]
+31.8 +25.6 70 +47 +48 опасность
перегрева
1005.5 1004.4
12 17.08 ЮЗ 8 7000 м гроза без осадков 10/6 600 м
[Cb cap Ac As]
+29.7 +24.4 73 +42 +42 опасность
перегрева
1006.8 1005.7 +33.4
15 17.08 ЮЗ 5 7000 м дымка {гроза} 9/3 600 м
[Sc Ac lent Cs]
+27.2 +24.5 85 +38 +38 очень
душно
1009.3 1008.2
18 17.08 ЮЗ 3 7000 м дымка {гроза} 9/3 600 м
[Sc Ac lent Cs]
+26.3 +24.4 89 +37 +37 очень
душно
1008.9 1007.8
21 17.08 Ю 3 7000 м дымка 8/3 600 м
[Sc Ac lent Cs]
+26.1 +24.4 90 +36 +36 очень
душно
1008.4 1007.3
00 18.08 Ю 3 7000 м дымка 8/3 600 м
[Sc Ac lent Cs]
+26.2 +24.0 88 +36 +37 очень
душно
1010.0 1008.9 +24.8
03 18.08 ЮЗ 7 8000 м дымка 8/1 600 м
[Sc Ac lent Cs]
+30.5 +23.7 67 +42 +44 опасность
перегрева
1010.9 1009.8
06 18.08 ЮЗ 7 8000 м мгла 8/3 600 м
[Cu med, cong Ac lent Cs]
+32.9 +24.2 60 +45 +48 опасность
перегрева
1009.2 1008.1
09 18.08 З 6 8000 м мгла 8/4 600 м
[Sc Ac lent Cs]
+33.0 +24.5 61 +46 +47 опасность
перегрева
1007.4 1006.3
12 18.08 З 3 7000 м дымка 9/4 600 м
[Sc Ac lent Cs]
+31.5 +25.1 69 +45 +45 опасность
перегрева
1007.7 1006.6 +33.8
15 18.08 ЮЗ 6 6000 м дымка 8/3 600 м
[Sc Ac lent Cs]
+29.5 +26.6 84 +45 +45 опасность
перегрева
1010.3 1009.2
18 18.08 ЮЗ 3 6000 м дымка 8/1 600 м
[Sc Ac lent Cs]
+28.1 +25.4 85 +41 +41 опасность
перегрева
1009.4 1008.3
21 18.08 ЮВ 2 6000 м дымка 8/1 600 м
[Sc Ac lent Cs]
+27.5 +24.8 85 +39 +39 очень
душно
1008.2 1007.1
00 19.08 Ю 2 7000 м дымка 8/3 600 м
[Sc Ac lent Cs]
+26.1 +24.7 92 +37 +37 очень
душно
1008.7 1007.6 +25.5
03 19.08 Ю 7 8000 м дымка 9/3 600 м
[Sc Ac As Cs]
+30.0 +23.5 68 +41 +42 опасность
перегрева
1010.2 1009.1
06 19.08 ЮЗ 7 8000 м мгла 8/3 600 м
[Cu med, cong Ac As Cs]
+32.7 +25.1 64 +46 +49 опасность
перегрева
1009.0 1007.9
09 19.08 ЮЗ 3 8000 м мгла 8/3 600 м
[Cu med, cong Ac As Cs]
+33.0 +24.5 61 +46 +49 опасность
перегрева
1005.2 1004.2
12 19.08 ЮЗ 4 8000 м дымка 10/4 600 м
[Sc Ac As Cs]
+31.3 +25.7 72 +46 +46 опасность
перегрева
1006.6 1005.5 +33.7
15 19.08 СВ 3 7000 м слаб. морось 10/4 600 м
[Sc Ac As Cs]
+26.6 +24.6 89 +38 +38 очень
душно
1008.6 1007.5 0.0
18 19.08 Ю 3 7000 м дымка {дождь} 10/4 600 м
[Sc Ac As Cs]
+25.9 +24.6 93 +37 +37 очень
душно
1007.8 1006.6 0.5
21 19.08 штиль 0 7000 м дымка {дождь} 10/4 600 м
[Sc Ac As Cs]
+25.7 +24.4 93 +36 +36 очень
душно
1005.3 1004.2
00 20.08 ЮВ 3 8000 м дымка 5/3 600 м
[Sc Ac As Cs]
+26.2 +24.5 90 +37 +37 очень
душно
1006.8 1005.6 +24.4
03 20.08 ЮЗ 6 8000 м дымка 9/4 600 м
[Cu med, cong Ac und Cs]
+31.0 +24.1 67 +43 +45 опасность
перегрева
1007.4 1006.3
06 20.08 ЮЗ 4 8000 м мгла 10/3 600 м
[Cu med, cong Ac As Cs]
+31.9 +23.4 61 +43 +48 опасность
перегрева
1007.2 1006.1
09 20.08 ЮЗ 10 8000 м мгла 9/3 600 м
[Cu med, cong Ac As Cs]
+32.7 +24.6 62 +45 +45 опасность
перегрева
1005.0 1004.0
12 20.08 Ю 4 6000 м гроза без осадков 10/6 600 м
[Cb cap Ac As]
+26.0 +24.6 92 +37 +37 очень
душно
1005.6 1004.5 +33.8 13
15 20.08 штиль 0 6000 м дымка 10/4 600 м
[Sc Ac As Cs]
+25.8 +24.5 93 +36 +36 очень
душно
1007.3 1006.2
18 20.08 Ю 4 8000 м дымка 9/3 600 м
[Sc Ac As Cs]
+25.6 +24.4 93 +36 +36 очень
душно
1005.6 1004.5
21 20.08 Ю 3 7000 м дымка 9/3 600 м
[Sc Ac As Cs]
+25.5 +24.3 93 +35 +35 очень
душно
1005.0 1003.9
00 21.08 В 2 7000 м дымка 9/3 600 м
[Sc Ac lent Cs]
+26.1 +24.8 93 +37 +38 очень
душно
1005.9 1004.8 +24.8
03 21.08 Ю 8 8000 м дымка 8/3 600 м
[Sc Ac lent Cs]
+30.5 +25.3 74 +44 +46 опасность
перегрева
1007.1 1006.0
06 21.08 З 11 8000 м мгла 8/3 600 м
[Sc Ac lent Cs]
+33.0 +24.2 60 +45 +45 опасность
перегрева
1005.7 1004.6
09 21.08 ЮЗ 11 8000 м мгла 8/3 600 м
[Cu med, cong Ac lent Cs]
+32.6 +23.9 60 +44 +44 опасность
перегрева
1003.9 1002.8
12 21.08 ЮЗ 7 5000 м слаб. дождь 10/8 600 м
[Sc Ac As]
+26.0 +25.1 95 +37 +37 очень
душно
1006.4 1005.3 +33.6 9
15 21.08 В 2 6000 м дымка {дождь} 10/4 600 м
[Sc Ac As Cs]
+26.2 +25.3 95 +38 +38 очень
душно
1007.7 1006.6 5
18 21.08 штиль 0 6000 м дымка {дождь} 9/3 600 м
[Sc Ac As Cs]
+26.0 +25.0 94 +37 +37 очень
душно
1007.5 1006.4 14
21 21.08 ЮВ 2 6000 м дымка {дождь} 10/4 600 м
[Sc Ac As Cs]
+25.6 +24.7 95 +36 +36 очень
душно
1005.4 1004.3 2
00 22.08 штиль 0 7000 м дымка {дождь} 10/4 600 м
[Sc Ac As Cs]
+25.5 +24.5 94 +36 +36 очень
душно
1007.4 1006.3 +24.5 0.6
03 22.08 ЮВ 4 8000 м дымка {дождь} 8/3 600 м
[Cu med, cong Ac und Cs]
+30.4 +25.2 74 +44 +49 опасность
перегрева
1009.8 1008.7
06 22.08 ЮЗ 8 8000 м мгла {дождь} 8/3 600 м
[Cu med, cong Ac lent Cs]
+33.1 +24.0 59 +45 +47 опасность
перегрева
1007.8 1006.7

 

Местоположение метеостанции Аюттхая (Таиланд): широта 14.52 долгота 100.72 высота над уровнем моря 10 м.

В архиве по умолчанию представлена погода в Аюттхая за последнюю неделю. Архивные данные за месяц целиком и за предыдущие месяцы, начиная с января 2011 года, Вы можете получить, выбрав интересующий диапазон дат из раскрывающегося списка и нажав кнопку "Ввод!".


*Определитесь, кто Вы:
робот инопланетянин человек

Внимание! Время в таблицах - всемирное. Для получения местного времени необходимо прибавить поправку, которая равна 7 ч.

Смотрите также архив погоды в соседних городах и на ближайших метеорологических станциях:

Погода в Сарабури (Таиланд) (22 км)
Погода в Лопбури (Таиланд) (33 км)
Погода в Патхумтхани (Таиланд) (48 км)
Погода в Суфанбури (Таиланд) (64 км)
Погода в Лаем-Чабанге (Таиланд) (65 км)
Погода в Пакчонг Агромете (Таиланд) (66 км)
Погода в Дон Муанг (Таиланд) (68 км)
Погода в Прачинбури (Таиланд) (87 км)
Погода в Бангкоке (Таиланд) (90 км)
Погода в Чайнат Агромете (Таиланд) (91 км)

Пояснения к столбцам:

Ветер - указаны скорость ветра в м/с - средняя за 10 мин, порывы в срок и между сроками (в фигурных скобках) и направление, откуда дует ветер: С - северный, СВ - северо-восточный, В - восточный, ЮВ - юго-восточный, Ю - южный, ЮЗ - юго-западный, З - западный, СЗ - северо-западный.
Видимость - горизонтальная дальность видимости в метрах или километрах. При видимости от 1 до 10 км при отсутствии осадков обычно наблюдается дымка, при ухудшении видимости до 1 км и менее - туман. В сухую погоду видимость может ухудшаться дымом, пылью или мглою.
Явления - указаны атмосферные явления, наблюдавшиеся в срок или в последний час перед сроком; фигурными скобками обозначены явления, наблюдавшиеся между сроками (за 1-3 часа до срока); квадратными скобками обозначены град или гололедные отложения с указанием их диаметра в мм.
Облачность - указаны через наклонную черту общая и нижняя облачность в баллах и высота нижней границы облаков в метрах; квадратными скобками обозначены формы облаков: Ci - перистые, Cs - перисто-слоистые, Cc - перисто-кучевые, Ac - высококучевые, As - высокослоистые, Sc - слоисто-кучевые, Ns - слоисто-дождевые, Cu - кучевые, Cb - кучево-дождевые. Подробнее классификацию облаков см. в Атласе облаков (PDF).
T - Температура воздуха - температура, измеренная на высоте 2 м над землей.
Td - Температура точки росы - температура, при понижении до которой содержащийся в воздухе водяной пар достигнет насыщения.
f - Относительная влажность воздуха - влажноcть воздуха, измеренная на высоте 2 м над землей.
Te - Эффективная температура - температура, которую ощущает одетый по сезону человек в тени. Характеристика душности погоды. При расчете учитывается влияние влажности воздуха и скорости ветра на теплоощущения человека.
Tes - Эффективная температура на солнце - температура, которую ощущает человек, с поправкой на солнечный нагрев. Характеристика знойности погоды. Зависит от высоты солнца над горизонтом, облачности и скорости ветра. Ночью, в пасмурную погоду, а также при ветре 12 м/с и более поправка равна нулю.
P - Атмосферное давление - приведенное к уровню моря атмосферное давление.
Po - Атмосферное давление - измеренное на уровне метеостанции атмосферное давление.
Tmin - Минимальная температура - минимум температуры воздуха на высоте 2 м над землей.
Tmax - Максимальная температура - максимум температуры воздуха на высоте 2 м над землей.
R - Количество осадков - Количество выпавших осадков за период времени, мм. При наведении курсора мыши на число - период времени, за который выпало указанное количество осадков.
R24 - Количество осадков - Количество выпавших осадков за 24 часа, мм.
S - Снежный покров - Высота снежного покрова, см. При наведении курсора мыши на число - состояние снежного покрова и степень покрытия местности в баллах.